Flag for U.S.A. Weather past 2 weeks in Atlanta, Georgia, U.S.A.

Now
40 °F

Clear.


Feels Like: 37 °F
Forecast: 31 / 59 °F
Wind: 5 mph from Northwest

Location: Fulton County Airport-Brown Field

Current Time: Mar 6, 2015 at 9:34:34 PM

Latest Report: Mar 6, 2015 at 8:53 PM


Visibility: 10 mi

Pressure: 30.44 "Hg

Humidity: 63%

Dew point: 28 °F

Location of AtlantaLocation

Historic Weather in Atlanta — Graph

°F

Atlanta temperature yesterday

Maximum temperature yesterday: 67 °F (at 1:53 AM)
Minimum temperature yesterday: 29 °F (at 11:53 PM)
Average temperature yesterday: 46 °F

Past Weeks' High & Low Weather Summary

 TemperatureHumidityPressure
High77 °F (Mar 4, 3:53 PM)100% (Mar 4, 1:53 AM)30.60 "Hg (Mar 4, 1:53 AM)
Low16 °F (Feb 20, 12:53 AM)24% (Feb 20, 1:53 PM)29.70 "Hg (Feb 26, 1:53 AM)
Average42 °F74%30.21 "Hg
* Reported Feb 19 7:53 PM — Mar 6 7:53 PM, Atlanta, Weather by CustomWeather, © 2015

Note: Actual official high and low records may vary slightly from our data, if they occured in-between our weather recording intervals... More about our weather records

Advertising

Atlanta weather history for previous 24 hours

 ConditionsComfort  
Time TempWeatherWind HumidityBarometerVisibility
7:53 PM
Fri, Mar 6
41 °FClear.5 mph58%30.43 "Hg10 mi
6:53 PM44 °FClear.7 mph51%30.40 "Hg10 mi
5:53 PM48 °FSunny.9 mph46%30.38 "Hg10 mi
4:53 PM49 °FSunny.8 mph44%30.38 "Hg10 mi
3:53 PM48 °FSunny.8 mph48%30.39 "Hg10 mi
2:53 PM48 °FPassing clouds.10 mph54%30.40 "Hg10 mi
1:53 PM45 °FOvercast.5 mph56%30.42 "Hg10 mi
12:53 PM43 °FOvercast.5 mph62%30.45 "Hg10 mi
11:53 AM40 °FOvercast.7 mph68%30.46 "Hg10 mi
10:53 AM37 °FOvercast.6 mph70%30.46 "Hg10 mi
9:53 AM34 °FBroken clouds.5 mph76%30.46 "Hg10 mi
8:53 AM29 °FLight snow. Overcast.6 mph79%30.44 "Hg4 mi
7:53 AM28 °FOvercast.5 mph75%30.43 "Hg10 mi
6:53 AM27 °FOvercast.7 mph75%30.41 "Hg10 mi
5:53 AM27 °FOvercast.6 mph75%30.39 "Hg10 mi
4:53 AM27 °FOvercast.8 mph75%30.37 "Hg10 mi
3:53 AM27 °FOvercast.7 mph75%30.36 "Hg10 mi
2:53 AM27 °FMostly cloudy.10 mph75%30.36 "Hg10 mi
1:53 AM27 °FOvercast.9 mph75%30.35 "Hg10 mi
12:53 AM28 °FPassing clouds.9 mph75%30.34 "Hg10 mi
11:53 PM
Thu, Mar 5
29 °FPassing clouds.10 mph75%30.35 "Hg10 mi
10:53 PM30 °FPassing clouds.9 mph72%30.35 "Hg10 mi
9:53 PM31 °FPassing clouds.13 mph73%30.32 "Hg10 mi
Weather by CustomWeather, © 2015

See weather overviewHow to use our weather pages